Location: La Brionne
(46.1728°N, 1.7849°E)
Time: 20:37:24
(UTC+00:00)

NOAA 15 - Pass Details

Date: 05 April 2023
Orbit: 797 x 811 km, 98.6° (Epoch: 09 June)

Event Time Altitude Azimuth Distance (km) Brightness Sun altitude
Rises 20:03:11 0° 208° (SSW) 3,318 7.8 -16.6°
Reaches altitude 10° 20:06:16 10° 227° (SW) 2,391 7.3 -17.1°
Maximum altitude 20:09:49 18° 270° (W) 1,891 7.3 -17.6°
Drops below altitude 10° 20:13:23 10° 312° (NW) 2,398 8.3 -18.1°
Sets 20:16:31 0° 332° (NNW) 3,332 8.8 -18.6°
